Location: Newark
(44.6166°N, 5.7097°E)
Time: 10:44:23
(UTC+00:00)

N. Korean satellite - Visible Passes

Search period start: 10 December 2019 00:00
Search period end: 20 December 2019 00:00
Orbit: 456 x 506 km, 97.2° (Epoch: 09 December)

Date Brightness Start Highest point End Pass type
(mag) Time Alt. Az. Time Alt. Az. Time Alt. Az.
10 Dec 8.3 05:02:44 10° NNE 05:05:58 33° E 05:09:09 10° SSE visible
10 Dec 8.6 17:12:45 10° SSW 17:16:07 32° W 17:19:30 10° NNW visible
11 Dec 9.6 04:38:02 10° NE 04:40:23 17° E 04:42:41 10° SE visible
11 Dec 7.3 06:10:43 10° N 06:13:52 31° WNW 06:16:57 10° SW visible
11 Dec 7.0 16:46:57 10° S 16:50:38 68° W 16:54:19 10° NNW visible
12 Dec 6.4 05:45:01 10° N 05:48:32 65° WNW 05:51:57 10° SSW visible
12 Dec 10.2 17:58:05 10° WSW 17:58:57 11° W 17:59:47 10° WNW visible
13 Dec 7.2 05:19:36 10° NNE 05:23:05 56° E 05:26:29 10° S visible
13 Dec 9.5 17:30:27 10° SW 17:33:17 21° W 17:36:08 10° NW visible
14 Dec 8.8 04:54:32 10° NE 04:57:33 26° E 05:00:30 10° SSE visible
14 Dec 7.8 06:28:12 10° NNW 06:30:48 20° WNW 06:33:22 10° WSW visible
14 Dec 8.1 17:04:14 10° S 17:07:44 40° W 17:11:14 10° NNW visible
15 Dec 9.8 04:30:10 10° ENE 04:31:55 13° E 04:33:39 10° ESE visible
15 Dec 6.9 06:02:14 10° N 06:05:31 38° WNW 06:08:44 10° SW visible
15 Dec 6.7 16:38:34 10° SSE 16:42:16 87° WSW 16:45:57 10° NNW visible
16 Dec 6.3 05:36:38 10° N 05:40:08 84° W 05:43:35 10° SSW visible
16 Dec 10.0 17:48:41 10° WSW 17:50:29 13° W 17:52:18 10° WNW visible
17 Dec 7.7 05:11:19 10° NNE 05:14:40 43° E 05:17:57 10° S visible
17 Dec 9.1 17:21:46 10° SSW 17:24:52 25° W 17:27:57 10° NW visible
18 Dec 9.2 04:46:24 10° NE 04:49:06 21° E 04:51:45 10° SE visible
18 Dec 7.6 06:19:35 10° NNW 06:22:27 24° WNW 06:25:15 10° SW visible
18 Dec 7.6 16:55:45 10° S 16:59:20 51° W 17:02:54 10° NNW visible
19 Dec 10.1 04:22:48 10° E 04:23:25 10° E 04:24:02 10° E visible
19 Dec 6.6 05:53:45 10° N 05:57:08 48° WNW 06:00:26 10° SSW visible
19 Dec 6.5 16:30:14 10° SSE 16:33:53 74° ENE 16:37:30 10° N visible
